Rochester, Indiana, United States (46975)
Lat: 41.06N, Lon: 86.22W
Wx Zone: INZ015
Local Info
Past Weather Observations for Today

NOTE: This archive is for the closest National Weather Service station to Rochester. Information may differ from the station used for current weather conditions.

Click here for Long-term Archive

Time Weather Temperature Dewpoint Humidity Pressure Winds Precip Visibility
22:55
Overcast
43°F / 6°C 36°F / 2°C 76% 29.89 in
(1012 mb)
WNW 17.3 mph
(WNW 28 kph)
- 10SM
22:35
Overcast
43°F / 6°C 36°F / 2°C 76% 29.89 in
(1012 mb)
WNW 17.3 mph
(WNW 28 kph)
- 10SM
22:15
Overcast
43°F / 6°C 36°F / 2°C 76% 29.89 in
(1012 mb)
SSW 12.7 mph
(SSW 20 kph)
- 10SM
21:55
Overcast
43°F / 6°C 34°F / 1°C 71% 29.86 in
(1011 mb)
SSW 11.5 mph
(SSW 19 kph)
- 10SM
21:35
Overcast
43°F / 6°C 34°F / 1°C 71% 29.83 in
(1010 mb)
SSW 13.8 mph
(SSW 22 kph)
- 10SM
21:15
Overcast
43°F / 6°C 34°F / 1°C 71% 29.83 in
(1010 mb)
SSW 12.7 mph
(SSW 20 kph)
- 10SM
20:55
Overcast
43°F / 6°C 32°F / 0°C 66% 29.83 in
(1010 mb)
SW 11.5 mph
(SW 19 kph)
- 10SM
20:35
Overcast
41°F / 5°C 32°F / 0°C 70% 29.83 in
(1010 mb)
SW 9.2 mph
(SW 15 kph)
- 10SM
20:15
Overcast
41°F / 5°C 32°F / 0°C 70% 29.83 in
(1010 mb)
SW 11.5 mph
(SW 19 kph)
- 10SM
19:55
Overcast
41°F / 5°C 32°F / 0°C 70% 29.83 in
(1010 mb)
SW 10.4 mph
(SW 17 kph)
- 10SM
19:35
Overcast
41°F / 5°C 30°F / -1°C 66% 29.83 in
(1010 mb)
SW 8.1 mph
(SW 13 kph)
- 10SM
19:15
Mostly Cloudy
41°F / 5°C 30°F / -1°C 66% 29.83 in
(1010 mb)
SW 9.2 mph
(SW 15 kph)
- 10SM
18:55
Overcast
41°F / 5°C 30°F / -1°C 66% 29.86 in
(1011 mb)
SW 10.4 mph
(SW 17 kph)
- 10SM
18:35
Overcast
41°F / 5°C 28°F / -2°C 61% 29.86 in
(1011 mb)
SW 8.1 mph
(SW 13 kph)
- 10SM
18:15
Overcast
41°F / 5°C 28°F / -2°C 61% 29.86 in
(1011 mb)
SW 6.9 mph
(SW 11 kph)
- 10SM
17:55
Overcast
39°F / 4°C 28°F / -2°C 65% 29.86 in
(1011 mb)
SW 8.1 mph
(SW 13 kph)
- 10SM
17:35
Overcast
37°F / 3°C 28°F / -2°C 70% 29.89 in
(1012 mb)
SW 6.9 mph
(SW 11 kph)
- 10SM
17:15
Overcast
37°F / 3°C 28°F / -2°C 70% 29.89 in
(1012 mb)
SW 5.8 mph
(SW 9 kph)
- 10SM
16:55
Overcast
Light Rain
37°F / 3°C 28°F / -2°C 70% 29.89 in
(1012 mb)
SW 6.9 mph
(SW 11 kph)
0.01 in
(0.25 mm)
10SM
16:35
Overcast
Light Rain
37°F / 3°C 28°F / -2°C 70% 29.89 in
(1012 mb)
SSE 9.2 mph
(SSE 15 kph)
- 10SM
16:15
Overcast
37°F / 3°C 28°F / -2°C 70% 29.86 in
(1011 mb)
S 11.5 mph
(S 19 kph)
- 10SM
15:55
Overcast
37°F / 3°C 28°F / -2°C 70% 29.89 in
(1012 mb)
S 8.1 mph
(S 13 kph)
- 10SM
15:35
Overcast
37°F / 3°C 28°F / -2°C 70% 29.92 in
(1013 mb)
S 11.5 mph
(S 19 kph)
- 10SM
15:15
Overcast
Light Rain
37°F / 3°C 28°F / -2°C 70% 29.95 in
(1014 mb)
SSE 13.8 mph
(SSE 22 kph)
- 10SM
14:55
Overcast
Light Rain
37°F / 3°C 28°F / -2°C 70% 29.95 in
(1014 mb)
SSE 12.7 mph
(SSE 20 kph)
- 10SM
14:35
Overcast
Light Rain
37°F / 3°C 27°F / -3°C 65% 29.95 in
(1014 mb)
S 9.2 mph
(S 15 kph)
- 10SM
14:15
Mostly Cloudy
Light Rain
39°F / 4°C 23°F / -5°C 52% 29.95 in
(1014 mb)
S 15 mph
(S 24 kph)
- 10SM
13:55
Clear
Light Snow
41°F / 5°C 19°F / -7°C 42% 29.98 in
(1015 mb)
S 16.1 mph
(S 26 kph)
- 7SM
13:35
Clear
41°F / 5°C 19°F / -7°C 42% 30.01 in
(1016 mb)
S 12.7 mph
(S 20 kph)
- 10SM
13:15
Clear
41°F / 5°C 19°F / -7°C 42% 30.01 in
(1016 mb)
S 13.8 mph
(S 22 kph)
- 10SM
12:55
Clear
41°F / 5°C 19°F / -7°C 42% 30.04 in
(1017 mb)
S 12.7 mph
(S 20 kph)
- 10SM
12:35
Clear
41°F / 5°C 19°F / -7°C 42% 30.06 in
(1018 mb)
S 10.4 mph
(S 17 kph)
- 10SM
12:15
Clear
41°F / 5°C 19°F / -7°C 42% 30.06 in
(1018 mb)
S 11.5 mph
(S 19 kph)
- 10SM
11:55
Clear
41°F / 5°C 19°F / -7°C 42% 30.09 in
(1019 mb)
S 12.7 mph
(S 20 kph)
- 10SM
11:35
Clear
37°F / 3°C 18°F / -8°C 45% 30.12 in
(1020 mb)
S 15 mph
(S 24 kph)
- 10SM
11:15
Clear
37°F / 3°C 18°F / -8°C 45% 30.15 in
(1021 mb)
SSE 5.8 mph
(SSE 9 kph)
- 10SM
10:55
Clear
37°F / 3°C 18°F / -8°C 45% 30.15 in
(1021 mb)
SSE 15 mph
(SSE 24 kph)
- 10SM
10:35
Clear
37°F / 3°C 18°F / -8°C 45% 30.18 in
(1022 mb)
S 11.5 mph
(S 19 kph)
- 10SM
10:15
Clear
36°F / 2°C 19°F / -7°C 52% 30.18 in
(1022 mb)
S 10.4 mph
(S 17 kph)
- 10SM
09:55
Clear
36°F / 2°C 19°F / -7°C 52% 30.18 in
(1022 mb)
S 12.7 mph
(S 20 kph)
- 10SM
09:35
Clear
34°F / 1°C 18°F / -8°C 51% 30.18 in
(1022 mb)
S 9.2 mph
(S 15 kph)
- 10SM
09:15
Clear
32°F / 0°C 19°F / -7°C 60% 30.21 in
(1023 mb)
S 8.1 mph
(S 13 kph)
- 10SM
08:55
Clear
32°F / 0°C 19°F / -7°C 60% 30.21 in
(1023 mb)
SSE 11.5 mph
(SSE 19 kph)
- 10SM
08:35
Clear
32°F / 0°C 19°F / -7°C 60% 30.21 in
(1023 mb)
SSE 8.1 mph
(SSE 13 kph)
- 10SM
08:15
Clear
30°F / -1°C 18°F / -8°C 59% 30.21 in
(1023 mb)
S 10.4 mph
(S 17 kph)
- 10SM
07:55
Clear
28°F / -2°C 18°F / -8°C 64% 30.21 in
(1023 mb)
S 9.2 mph
(S 15 kph)
- 10SM
07:35
Clear
28°F / -2°C 18°F / -8°C 64% 30.21 in
(1023 mb)
S 9.2 mph
(S 15 kph)
- 10SM
07:15
Clear
27°F / -3°C 18°F / -8°C 69% 30.24 in
(1024 mb)
S 4.6 mph
(S 7 kph)
- 10SM
06:55
Clear
27°F / -3°C 18°F / -8°C 69% 30.24 in
(1024 mb)
S 6.9 mph
(S 11 kph)
- 10SM
06:35
Clear
27°F / -3°C 18°F / -8°C 69% 30.24 in
(1024 mb)
S 5.8 mph
(S 9 kph)
- 10SM
06:15
Clear
27°F / -3°C 18°F / -8°C 69% 30.24 in
(1024 mb)
S 4.6 mph
(S 7 kph)
- 10SM
05:55
Clear
27°F / -3°C 18°F / -8°C 69% 30.24 in
(1024 mb)
S 4.6 mph
(S 7 kph)
- 10SM
05:35
Clear
25°F / -4°C 18°F / -8°C 74% 30.24 in
(1024 mb)
S 4.6 mph
(S 7 kph)
- 10SM
05:15
Clear
27°F / -3°C 18°F / -8°C 69% 30.24 in
(1024 mb)
S 4.6 mph
(S 7 kph)
- 10SM
04:55
Clear
27°F / -3°C 18°F / -8°C 69% 30.24 in
(1024 mb)
S 4.6 mph
(S 7 kph)
- 10SM
04:35
Clear
27°F / -3°C 18°F / -8°C 69% 30.24 in
(1024 mb)
S 4.6 mph
(S 7 kph)
- 10SM
04:15
Clear
27°F / -3°C 16°F / -9°C 64% 30.24 in
(1024 mb)
S 4.6 mph
(S 7 kph)
- 10SM
03:55
Clear
27°F / -3°C 16°F / -9°C 64% 30.27 in
(1025 mb)
S 3.5 mph
(S 6 kph)
- 10SM
03:35
Clear
27°F / -3°C 16°F / -9°C 64% 30.27 in
(1025 mb)
S 3.5 mph
(S 6 kph)
- 10SM
03:15
Clear
25°F / -4°C 16°F / -9°C 69% 30.27 in
(1025 mb)
S 4.6 mph
(S 7 kph)
- 10SM
02:55
Clear
25°F / -4°C 16°F / -9°C 69% 30.27 in
(1025 mb)
S 4.6 mph
(S 7 kph)
- 10SM
02:35
Clear
23°F / -5°C 16°F / -9°C 74% 30.3 in
(1026 mb)
Calm - 10SM
02:15
Clear
21°F / -6°C 16°F / -9°C 80% 30.3 in
(1026 mb)
Calm - 10SM
01:55
Clear
21°F / -6°C 14°F / -10°C 74% 30.3 in
(1026 mb)
Calm - 10SM
01:35
Clear
19°F / -7°C 14°F / -10°C 79% 30.3 in
(1026 mb)
Calm - 10SM
01:15
Clear
19°F / -7°C 14°F / -10°C 79% 30.3 in
(1026 mb)
Calm - 10SM
00:55
Clear
19°F / -7°C 14°F / -10°C 79% 30.3 in
(1026 mb)
Calm - 10SM
00:35
Clear
21°F / -6°C 14°F / -10°C 74% 30.3 in
(1026 mb)
Calm - 10SM
00:15
Clear
21°F / -6°C 16°F / -9°C 80% 30.3 in
(1026 mb)
Calm - 10SM
Time Weather Temperature Dewpoint Humidity Pressure Winds Precip Visibility


Weather for websites

WeatherForYou.com, LLC is not responsible for any damages or problems caused by this service. Current weather conditions are obtained from the closest station including government and personal stations which may have varying degrees of accuracy. Weather forecasts are derived from the NOAA NDFD. Like all things, this site belongs to Jesus Christ... He just trusts me to maintain it. If you have any questions or comments email webmaster@weatherforyou.com

Copyright © 2015, WeatherForYou.com LLC. All rights reserved.